Time,TemperatureF,DewpointF,PressureIn,WindDirection,WindDirectionDegrees,WindSpeedMPH,WindSpeedGustMPH,Humidity,HourlyPrecipIn,Conditions,Clouds,dailyrainin,SoftwareType,DateUTC
2013-03-13 00:13:00,41.7,31.0,29.97,NW,323,7.0,10.0,65,0.00,,,0.00,weatherlink.com 1.10,2013-03-13 04:13:00,
2013-03-13 00:28:00,41.5,30.0,29.98,NW,309,5.0,13.0,65,0.00,,,0.00,weatherlink.com 1.10,2013-03-13 04:28:00,
2013-03-13 00:43:00,41.5,30.0,29.97,NW,317,9.0,14.0,64,0.00,,,0.00,weatherlink.com 1.10,2013-03-13 04:43:00,
2013-03-13 00:58:00,41.1,30.0,29.97,NNW,334,7.0,10.0,64,0.00,,,0.00,weatherlink.com 1.10,2013-03-13 04:58:00,
2013-03-13 01:13:00,40.9,29.0,29.97,NNW,346,4.0,11.0,64,0.00,,,0.00,weatherlink.com 1.10,2013-03-13 05:13:00,
2013-03-13 01:28:00,40.9,29.0,29.97,WNW,298,3.0,11.0,63,0.00,,,0.00,weatherlink.com 1.10,2013-03-13 05:28:00,
2013-03-13 01:43:00,40.7,28.0,29.96,NNW,346,5.0,10.0,62,0.00,,,0.00,weatherlink.com 1.10,2013-03-13 05:43:00,
2013-03-13 01:58:00,40.5,29.0,29.97,WNW,285,3.0,11.0,63,0.00,,,0.00,weatherlink.com 1.10,2013-03-13 05:58:00,
2013-03-13 02:13:00,40.2,28.0,29.97,WNW,295,2.0,8.0,63,0.00,,,0.00,weatherlink.com 1.10,2013-03-13 06:13:00,
2013-03-13 02:28:00,40.2,28.0,29.97,NW,319,1.0,8.0,63,0.00,,,0.00,weatherlink.com 1.10,2013-03-13 06:28:00,
2013-03-13 02:43:00,39.9,28.0,29.97,NW,325,2.0,6.0,63,0.00,,,0.00,weatherlink.com 1.10,2013-03-13 06:43:00,
2013-03-13 02:58:00,39.8,28.0,29.97,NW,314,3.0,6.0,63,0.00,,,0.00,weatherlink.com 1.10,2013-03-13 06:58:00,
2013-03-13 03:13:00,39.6,28.0,29.97,North,355,1.0,4.0,63,0.00,,,0.00,weatherlink.com 1.10,2013-03-13 07:13:00,
2013-03-13 03:28:00,39.7,28.0,29.97,NNW,333,2.0,8.0,63,0.00,,,0.00,weatherlink.com 1.10,2013-03-13 07:28:00,
2013-03-13 03:43:00,39.7,27.0,29.96,NNW,339,2.0,8.0,62,0.00,,,0.00,weatherlink.com 1.10,2013-03-13 07:43:00,
2013-03-13 03:58:00,39.7,27.0,29.96,NNW,332,1.0,6.0,62,0.00,,,0.00,weatherlink.com 1.10,2013-03-13 07:58:00,
2013-03-13 04:13:00,39.5,28.0,29.96,WNW,292,0.0,2.0,63,0.00,,,0.00,weatherlink.com 1.10,2013-03-13 08:13:00,
2013-03-13 04:28:00,39.2,27.0,29.96,WNW,292,2.0,3.0,63,0.00,,,0.00,weatherlink.com 1.10,2013-03-13 08:28:00,
2013-03-13 04:43:00,39.0,28.0,29.95,WNW,292,0.0,2.0,64,0.00,,,0.00,weatherlink.com 1.10,2013-03-13 08:43:00,
2013-03-13 04:58:00,38.4,27.0,29.96,WNW,292,0.0,2.0,64,0.00,,,0.00,weatherlink.com 1.10,2013-03-13 08:58:00,
2013-03-13 05:13:00,37.9,28.0,29.96,WNW,292,0.0,2.0,67,0.00,,,0.00,weatherlink.com 1.10,2013-03-13 09:13:00,
2013-03-13 05:28:00,37.4,27.0,29.96,WNW,292,0.0,0.0,67,0.00,,,0.00,weatherlink.com 1.10,2013-03-13 09:28:00,
2013-03-13 05:43:00,36.9,27.0,29.96,WNW,292,1.0,2.0,68,0.00,,,0.00,weatherlink.com 1.10,2013-03-13 09:43:00,
2013-03-13 05:58:00,36.3,28.0,29.96,WNW,292,1.0,2.0,73,0.00,,,0.00,weatherlink.com 1.10,2013-03-13 09:58:00,
2013-03-13 06:13:00,36.2,28.0,29.97,WNW,292,0.0,2.0,71,0.00,,,0.00,weatherlink.com 1.10,2013-03-13 10:13:00,
2013-03-13 06:28:00,36.5,27.0,29.97,WNW,292,0.0,1.0,69,0.00,,,0.00,weatherlink.com 1.10,2013-03-13 10:28:00,
2013-03-13 06:43:00,36.9,28.0,29.97,WNW,292,0.0,3.0,69,0.00,,,0.00,weatherlink.com 1.10,2013-03-13 10:43:00,
2013-03-13 06:58:00,37.4,28.0,29.98,WNW,290,0.0,2.0,68,0.00,,,0.00,weatherlink.com 1.10,2013-03-13 10:58:00,
2013-03-13 07:14:00,37.2,27.0,29.98,WNW,290,1.0,2.0,68,0.00,,,0.00,weatherlink.com 1.10,2013-03-13 11:14:00,
2013-03-13 07:28:00,37.3,27.0,29.98,WNW,288,1.0,3.0,67,0.00,,,0.00,weatherlink.com 1.10,2013-03-13 11:28:00,
2013-03-13 07:44:00,37.4,27.0,29.98,WNW,288,0.0,1.0,66,0.00,,,0.00,weatherlink.com 1.10,2013-03-13 11:44:00,
2013-03-13 07:59:00,36.7,28.0,29.98,West,279,0.0,3.0,70,0.00,,,0.00,weatherlink.com 1.10,2013-03-13 11:59:00,
2013-03-13 08:14:00,36.3,28.0,29.99,West,278,0.0,2.0,72,0.00,,,0.00,weatherlink.com 1.10,2013-03-13 12:14:00,
2013-03-13 08:29:00,37.0,28.0,29.99,West,278,0.0,2.0,71,0.00,,,0.00,weatherlink.com 1.10,2013-03-13 12:29:00,
2013-03-13 08:44:00,37.2,29.0,29.99,WSW,252,1.0,3.0,73,0.00,,,0.00,weatherlink.com 1.10,2013-03-13 12:44:00,
2013-03-13 08:59:00,37.7,30.0,29.99,South,187,1.0,2.0,74,0.00,,,0.00,weatherlink.com 1.10,2013-03-13 12:59:00,
2013-03-13 09:14:00,38.9,30.0,29.99,South,186,0.0,2.0,70,0.00,,,0.00,weatherlink.com 1.10,2013-03-13 13:14:00,
2013-03-13 09:29:00,40.4,29.0,29.99,SSW,213,1.0,4.0,64,0.00,,,0.00,weatherlink.com 1.10,2013-03-13 13:29:00,
2013-03-13 09:44:00,41.4,29.0,29.98,SSE,158,1.0,7.0,61,0.00,,,0.00,weatherlink.com 1.10,2013-03-13 13:44:00,
2013-03-13 09:59:00,41.8,28.0,29.98,SW,216,2.0,6.0,59,0.00,,,0.00,weatherlink.com 1.10,2013-03-13 13:59:00,
2013-03-13 10:14:00,42.7,28.0,29.98,SW,225,2.0,6.0,57,0.00,,,0.00,weatherlink.com 1.10,2013-03-13 14:14:00,
2013-03-13 10:29:00,42.9,28.0,29.98,SSE,158,2.0,6.0,56,0.00,,,0.00,weatherlink.com 1.10,2013-03-13 14:29:00,
2013-03-13 10:44:00,43.8,28.0,29.97,WSW,244,5.0,7.0,55,0.00,,,0.00,weatherlink.com 1.10,2013-03-13 14:44:00,
2013-03-13 10:59:00,44.5,28.0,29.97,WSW,239,4.0,8.0,52,0.00,,,0.00,weatherlink.com 1.10,2013-03-13 14:59:00,
2013-03-13 11:14:00,44.9,28.0,29.96,WSW,246,1.0,8.0,51,0.00,,,0.00,weatherlink.com 1.10,2013-03-13 15:14:00,
2013-03-13 11:29:00,45.7,28.0,29.96,West,276,7.0,8.0,51,0.00,,,0.00,weatherlink.com 1.10,2013-03-13 15:29:00,
2013-03-13 11:44:00,46.4,29.0,29.95,SSW,213,3.0,6.0,52,0.00,,,0.00,weatherlink.com 1.10,2013-03-13 15:44:00,
2013-03-13 11:59:00,45.9,28.0,29.95,South,178,2.0,7.0,50,0.00,,,0.00,weatherlink.com 1.10,2013-03-13 15:59:00,
2013-03-13 12:14:00,45.6,27.0,29.95,WNW,284,5.0,11.0,48,0.00,,,0.00,weatherlink.com 1.10,2013-03-13 16:14:00,
2013-03-13 12:29:00,46.0,27.0,29.94,NNW,331,4.0,9.0,48,0.00,,,0.00,weatherlink.com 1.10,2013-03-13 16:29:00,
2013-03-13 12:44:00,46.6,28.0,29.94,West,278,3.0,7.0,49,0.00,,,0.00,weatherlink.com 1.10,2013-03-13 16:44:00,
2013-03-13 12:59:00,47.6,27.0,29.94,NNW,334,8.0,9.0,45,0.00,,,0.00,weatherlink.com 1.10,2013-03-13 16:59:00,
2013-03-13 13:14:00,45.8,28.0,29.94,North,355,8.0,19.0,50,0.00,,,0.00,weatherlink.com 1.10,2013-03-13 17:14:00,
2013-03-13 13:29:00,45.2,28.0,29.94,North,355,7.0,19.0,51,0.00,,,0.00,weatherlink.com 1.10,2013-03-13 17:29:00,
2013-03-13 13:44:00,46.4,28.0,29.93,WNW,294,4.0,12.0,49,0.00,,,0.00,weatherlink.com 1.10,2013-03-13 17:44:00,
2013-03-13 13:59:00,47.2,27.0,29.93,WNW,290,12.0,17.0,46,0.00,,,0.00,weatherlink.com 1.10,2013-03-13 17:59:00,
2013-03-13 14:14:00,46.1,27.0,29.93,West,279,10.0,19.0,47,0.00,,,0.00,weatherlink.com 1.10,2013-03-13 18:14:00,
2013-03-13 14:44:00,47.8,21.0,29.92,WNW,301,9.0,16.0,35,0.00,,,0.00,weatherlink.com 1.10,2013-03-13 18:44:00,
2013-03-13 14:59:00,47.6,21.0,29.91,NW,321,4.0,15.0,35,0.00,,,0.00,weatherlink.com 1.10,2013-03-13 18:59:00,
2013-03-13 15:14:00,47.5,20.0,29.92,West,275,8.0,17.0,33,0.00,,,0.00,weatherlink.com 1.10,2013-03-13 19:14:00,
2013-03-13 15:29:00,47.9,19.0,29.92,WNW,288,16.0,16.0,32,0.00,,,0.00,weatherlink.com 1.10,2013-03-13 19:29:00,
2013-03-13 15:44:00,47.6,19.0,29.92,WNW,303,4.0,14.0,32,0.00,,,0.00,weatherlink.com 1.10,2013-03-13 19:44:00,
2013-03-13 15:59:00,48.2,19.0,29.92,WNW,300,9.0,15.0,31,0.00,,,0.00,weatherlink.com 1.10,2013-03-13 19:59:00,
2013-03-13 16:14:00,48.3,20.0,29.91,North,355,7.0,14.0,32,0.00,,,0.00,weatherlink.com 1.10,2013-03-13 20:14:00,
2013-03-13 16:29:00,48.0,21.0,29.92,NNW,339,6.0,16.0,34,0.00,,,0.00,weatherlink.com 1.10,2013-03-13 20:29:00,
2013-03-13 16:44:00,48.3,19.0,29.92,WNW,297,7.0,17.0,31,0.00,,,0.00,weatherlink.com 1.10,2013-03-13 20:44:00,
2013-03-13 16:59:00,47.5,21.0,29.92,WNW,294,5.0,11.0,35,0.00,,,0.00,weatherlink.com 1.10,2013-03-13 20:59:00,
2013-03-13 17:14:00,46.3,22.0,29.94,West,267,9.0,15.0,39,0.00,,,0.00,weatherlink.com 1.10,2013-03-13 21:14:00,
2013-03-13 17:29:00,46.0,24.0,29.94,WNW,288,8.0,20.0,42,0.00,,,0.00,weatherlink.com 1.10,2013-03-13 21:29:00,
2013-03-13 17:45:00,45.3,25.0,29.95,West,265,12.0,17.0,45,0.00,,,0.00,weatherlink.com 1.10,2013-03-13 21:45:00,
2013-03-13 17:59:00,44.3,24.0,29.95,WNW,297,7.0,20.0,45,0.00,,,0.00,weatherlink.com 1.10,2013-03-13 21:59:00,
2013-03-13 18:14:00,45.0,25.0,29.95,West,265,7.0,17.0,45,0.00,,,0.00,weatherlink.com 1.10,2013-03-13 22:14:00,
2013-03-13 18:29:00,44.1,24.0,29.96,NW,311,5.0,19.0,46,0.00,,,0.00,weatherlink.com 1.10,2013-03-13 22:29:00,
2013-03-13 18:59:00,40.6,27.0,29.99,WNW,300,10.0,16.0,58,0.00,,,0.00,weatherlink.com 1.10,2013-03-13 22:59:00,
2013-03-13 19:15:00,40.0,26.0,30.00,NW,319,8.0,19.0,58,0.00,,,0.00,weatherlink.com 1.10,2013-03-13 23:15:00,
2013-03-13 19:30:00,40.1,25.0,30.00,WNW,294,14.0,16.0,55,0.00,,,0.00,weatherlink.com 1.10,2013-03-13 23:30:00,
2013-03-13 19:45:00,40.0,24.0,30.01,NW,310,11.0,17.0,54,0.00,,,0.00,weatherlink.com 1.10,2013-03-13 23:45:00,
2013-03-13 20:00:00,39.8,24.0,30.01,WNW,285,10.0,14.0,54,0.00,,,0.00,weatherlink.com 1.10,2013-03-14 00:00:00,
2013-03-13 20:15:00,39.4,24.0,30.02,West,268,8.0,13.0,55,0.00,,,0.00,weatherlink.com 1.10,2013-03-14 00:15:00,
2013-03-13 20:30:00,39.1,24.0,30.03,WNW,297,8.0,17.0,56,0.00,,,0.00,weatherlink.com 1.10,2013-03-14 00:30:00,
2013-03-13 20:45:00,38.8,24.0,30.03,NW,318,4.0,14.0,56,0.00,,,0.00,weatherlink.com 1.10,2013-03-14 00:45:00,
2013-03-13 21:00:00,38.5,22.0,30.04,WNW,291,5.0,10.0,52,0.00,,,0.00,weatherlink.com 1.10,2013-03-14 01:00:00,
2013-03-13 21:15:00,38.1,21.0,30.04,NNW,331,11.0,13.0,51,0.00,,,0.00,weatherlink.com 1.10,2013-03-14 01:15:00,
2013-03-13 21:30:00,37.7,20.0,30.05,NW,310,5.0,13.0,50,0.00,,,0.00,weatherlink.com 1.10,2013-03-14 01:30:00,
2013-03-13 21:45:00,37.3,20.0,30.05,WNW,290,4.0,17.0,50,0.00,,,0.00,weatherlink.com 1.10,2013-03-14 01:45:00,
2013-03-13 22:00:00,36.8,20.0,30.07,NW,325,8.0,18.0,50,0.00,,,0.00,weatherlink.com 1.10,2013-03-14 02:00:00,
2013-03-13 22:15:00,36.4,19.0,30.07,West,277,5.0,20.0,49,0.00,,,0.00,weatherlink.com 1.10,2013-03-14 02:15:00,
2013-03-13 22:30:00,36.1,19.0,30.07,WSW,244,7.0,14.0,50,0.00,,,0.00,weatherlink.com 1.10,2013-03-14 02:30:00,
2013-03-13 22:45:00,35.8,19.0,30.08,NW,321,7.0,13.0,51,0.00,,,0.00,weatherlink.com 1.10,2013-03-14 02:45:00,
2013-03-13 23:00:00,35.5,19.0,30.08,NW,304,11.0,15.0,52,0.00,,,0.00,weatherlink.com 1.10,2013-03-14 03:00:00,
2013-03-13 23:15:00,35.2,20.0,30.08,NW,311,2.0,12.0,54,0.00,,,0.00,weatherlink.com 1.10,2013-03-14 03:15:00,
2013-03-13 23:29:00,34.7,20.0,30.08,WNW,292,4.0,13.0,55,0.00,,,0.00,weatherlink.com 1.10,2013-03-14 03:29:00,
2013-03-13 23:45:00,34.3,20.0,30.08,WNW,302,11.0,16.0,56,0.00,,,0.00,weatherlink.com 1.10,2013-03-14 03:45:00,